contact:dominique.lefevre@mio.osupytheas.fr, maurice.libes@osupytheas.fr, didier.mallarino@osupytheas.fr
Project:EMSO http://www.emso-fr.org/EMSO-France
Depth: 2436.0 m
Title:EMSO Ligure Ouest : Data MII capteur MICROCAT
DateTime_Computer,Latitude,Longitude,Temperature,Conductivity,Pressure,DateTime_Instrument
DateTime_Computer,Latitude,Longitude,degC,S m-1,dbar,DateTime_Instrument
2022-05-15T00:01:35Z,42.805,6.029,13.3007,4.60040,2470.1,2022-5-15T02:03:16Z
2022-05-15T00:04:38Z,42.805,6.029,13.3008,4.60040,2470.1,2022-5-15T02:06:19Z
2022-05-15T00:07:42Z,42.805,6.029,13.3006,4.60041,2470.087,2022-5-15T02:09:22Z
2022-05-15T00:10:45Z,42.805,6.029,13.3009,4.60041,2470.1,2022-5-15T02:12:26Z
2022-05-15T00:13:48Z,42.805,6.029,13.3008,4.60040,2470.077,2022-5-15T02:15:29Z
2022-05-15T00:16:51Z,42.805,6.029,13.3005,4.60040,2470.1,2022-5-15T02:18:32Z
2022-05-15T00:19:54Z,42.805,6.029,13.3005,4.60040,2470.11,2022-5-15T02:21:35Z
2022-05-15T00:22:57Z,42.805,6.029,13.3005,4.60039,2470.11,2022-5-15T02:24:38Z
2022-05-15T00:26:00Z,42.805,6.029,13.3005,4.60041,2470.124,2022-5-15T02:27:41Z
2022-05-15T00:29:03Z,42.805,6.029,13.3005,4.60040,2470.11,2022-5-15T02:30:44Z
2022-05-15T00:32:07Z,42.805,6.029,13.3007,4.60039,2470.147,2022-5-15T02:33:47Z
2022-05-15T00:35:10Z,42.805,6.029,13.3009,4.60040,2470.1,2022-5-15T02:36:51Z
2022-05-15T00:38:13Z,42.805,6.029,13.3007,4.60039,2470.124,2022-5-15T02:39:54Z
2022-05-15T00:41:16Z,42.805,6.029,13.3003,4.60039,2470.087,2022-5-15T02:42:57Z
2022-05-15T00:44:19Z,42.805,6.029,13.3008,4.60039,2470.133,2022-5-15T02:46:00Z
2022-05-15T00:47:22Z,42.805,6.029,13.3004,4.60040,2470.1,2022-5-15T02:49:03Z
2022-05-15T00:50:25Z,42.805,6.029,13.3008,4.60040,2470.11,2022-5-15T02:52:06Z
2022-05-15T00:53:28Z,42.805,6.029,13.3006,4.60040,2470.1,2022-5-15T02:55:09Z
2022-05-15T00:56:32Z,42.805,6.029,13.3004,4.60040,2470.11,2022-5-15T02:58:12Z
2022-05-15T00:59:35Z,42.805,6.029,13.3006,4.60041,2470.11,2022-5-15T03:01:16Z
2022-05-15T01:02:38Z,42.805,6.029,13.3006,4.60039,2470.133,2022-5-15T03:04:19Z
2022-05-15T01:05:41Z,42.805,6.029,13.3005,4.60041,2470.124,2022-5-15T03:07:22Z
2022-05-15T01:08:44Z,42.805,6.029,13.3005,4.60040,2470.11,2022-5-15T03:10:25Z
2022-05-15T01:11:47Z,42.805,6.029,13.3004,4.60040,2470.147,2022-5-15T03:13:28Z
2022-05-15T01:14:50Z,42.805,6.029,13.3006,4.60040,2470.11,2022-5-15T03:16:31Z
2022-05-15T01:17:53Z,42.805,6.029,13.3004,4.60039,2470.124,2022-5-15T03:19:34Z
2022-05-15T01:20:57Z,42.805,6.029,13.3005,4.60040,2470.11,2022-5-15T03:22:37Z
2022-05-15T01:24:00Z,42.805,6.029,13.3004,4.60041,2470.133,2022-5-15T03:25:40Z
2022-05-15T01:27:03Z,42.805,6.029,13.3008,4.60039,2470.11,2022-5-15T03:28:44Z
2022-05-15T01:30:06Z,42.805,6.029,13.3002,4.60041,2470.156,2022-5-15T03:31:47Z
2022-05-15T01:33:09Z,42.805,6.029,13.3006,4.60040,2470.124,2022-5-15T03:34:50Z
2022-05-15T01:36:12Z,42.805,6.029,13.3006,4.60041,2470.147,2022-5-15T03:37:53Z
2022-05-15T01:39:15Z,42.805,6.029,13.3006,4.60040,2470.171,2022-5-15T03:40:56Z
2022-05-15T01:42:18Z,42.805,6.029,13.3003,4.60040,2470.133,2022-5-15T03:43:59Z
2022-05-15T01:45:21Z,42.805,6.029,13.3007,4.60040,2470.133,2022-5-15T03:47:02Z
2022-05-15T01:48:25Z,42.805,6.029,13.3006,4.60040,2470.133,2022-5-15T03:50:05Z
2022-05-15T01:51:28Z,42.805,6.029,13.3006,4.60040,2470.171,2022-5-15T03:53:09Z
2022-05-15T01:54:31Z,42.805,6.029,13.3004,4.60041,2470.133,2022-5-15T03:56:12Z
2022-05-15T01:57:34Z,42.805,6.029,13.3005,4.60041,2470.18,2022-5-15T03:59:15Z
2022-05-15T02:00:37Z,42.805,6.029,13.3007,4.60042,2470.156,2022-5-15T04:02:18Z
2022-05-15T02:03:40Z,42.805,6.029,13.3006,4.60040,2470.133,2022-5-15T04:05:21Z
2022-05-15T02:06:43Z,42.805,6.029,13.3005,4.60040,2470.18,2022-5-15T04:08:24Z
2022-05-15T02:09:46Z,42.805,6.029,13.3008,4.60040,2470.171,2022-5-15T04:11:27Z
2022-05-15T02:12:50Z,42.805,6.029,13.3006,4.60039,2470.18,2022-5-15T04:14:30Z
2022-05-15T02:15:53Z,42.805,6.029,13.3006,4.60040,2470.156,2022-5-15T04:17:34Z
2022-05-15T02:18:56Z,42.805,6.029,13.3007,4.60040,2470.18,2022-5-15T04:20:37Z
2022-05-15T02:21:59Z,42.805,6.029,13.3006,4.60040,2470.194,2022-5-15T04:23:40Z
2022-05-15T02:25:02Z,42.805,6.029,13.3007,4.60041,2470.156,2022-5-15T04:26:43Z
2022-05-15T02:28:05Z,42.805,6.029,13.3009,4.60041,2470.18,2022-5-15T04:29:46Z
2022-05-15T02:31:08Z,42.805,6.029,13.3006,4.60040,2470.18,2022-5-15T04:32:49Z
2022-05-15T02:34:11Z,42.805,6.029,13.3006,4.60041,2470.18,2022-5-15T04:35:52Z
2022-05-15T02:37:15Z,42.805,6.029,13.3009,4.60040,2470.203,2022-5-15T04:38:55Z
2022-05-15T02:40:18Z,42.805,6.029,13.3007,4.60041,2470.194,2022-5-15T04:41:58Z
2022-05-15T02:43:21Z,42.805,6.029,13.3006,4.60041,2470.18,2022-5-15T04:45:02Z
2022-05-15T02:46:24Z,42.805,6.029,13.3004,4.60041,2470.24,2022-5-15T04:48:05Z
2022-05-15T02:49:27Z,42.805,6.029,13.3006,4.60041,2470.18,2022-5-15T04:51:08Z
2022-05-15T02:52:30Z,42.805,6.029,13.3001,4.60041,2470.18,2022-5-15T04:54:11Z
2022-05-15T02:55:33Z,42.805,6.029,13.3006,4.60040,2470.194,2022-5-15T04:57:14Z
2022-05-15T02:58:36Z,42.805,6.029,13.3004,4.60041,2470.156,2022-5-15T05:00:17Z
2022-05-15T03:01:39Z,42.805,6.029,13.3007,4.60040,2470.203,2022-5-15T05:03:20Z
2022-05-15T03:04:43Z,42.805,6.029,13.3004,4.60040,2470.24,2022-5-15T05:06:23Z
2022-05-15T03:07:46Z,42.805,6.029,13.3003,4.60039,2470.189,2022-5-15T05:09:27Z
2022-05-15T03:10:49Z,42.805,6.029,13.3008,4.60039,2470.203,2022-5-15T05:12:30Z
2022-05-15T03:13:52Z,42.805,6.029,13.3006,4.60041,2470.264,2022-5-15T05:15:33Z
2022-05-15T03:16:55Z,42.805,6.029,13.3009,4.60041,2470.203,2022-5-15T05:18:36Z
2022-05-15T03:19:58Z,42.805,6.029,13.3003,4.60040,2470.217,2022-5-15T05:21:39Z
2022-05-15T03:23:01Z,42.805,6.029,13.3006,4.60041,2470.203,2022-5-15T05:24:42Z
2022-05-15T03:26:04Z,42.805,6.029,13.3006,4.60041,2470.203,2022-5-15T05:27:45Z
2022-05-15T03:29:08Z,42.805,6.029,13.3009,4.60041,2470.227,2022-5-15T05:30:48Z
2022-05-15T03:32:11Z,42.805,6.029,13.3009,4.60040,2470.25,2022-5-15T05:33:52Z
2022-05-15T03:35:14Z,42.805,6.029,13.3004,4.60041,2470.227,2022-5-15T05:36:55Z
2022-05-15T03:38:17Z,42.805,6.029,13.3005,4.60040,2470.24,2022-5-15T05:39:58Z
2022-05-15T03:41:20Z,42.805,6.029,13.3004,4.60040,2470.273,2022-5-15T05:43:01Z
2022-05-15T03:44:23Z,42.805,6.029,13.3004,4.60040,2470.273,2022-5-15T05:46:04Z
2022-05-15T03:47:26Z,42.805,6.029,13.3008,4.60040,2470.287,2022-5-15T05:49:07Z
2022-05-15T03:50:29Z,42.805,6.029,13.3005,4.60041,2470.25,2022-5-15T05:52:10Z
2022-05-15T03:53:33Z,42.805,6.029,13.3010,4.60041,2470.273,2022-5-15T05:55:13Z
2022-05-15T03:56:36Z,42.805,6.029,13.3005,4.60041,2470.273,2022-5-15T05:58:17Z
2022-05-15T03:59:39Z,42.805,6.029,13.3009,4.60041,2470.297,2022-5-15T06:01:20Z
2022-05-15T04:02:42Z,42.805,6.029,13.3010,4.60041,2470.273,2022-5-15T06:04:23Z
2022-05-15T04:05:45Z,42.805,6.029,13.3004,4.60041,2470.273,2022-5-15T06:07:26Z
2022-05-15T04:08:48Z,42.805,6.029,13.3007,4.60041,2470.31,2022-5-15T06:10:29Z
2022-05-15T04:11:51Z,42.805,6.029,13.3002,4.60041,2470.287,2022-5-15T06:13:32Z
2022-05-15T04:14:54Z,42.805,6.029,13.3004,4.60040,2470.26,2022-5-15T06:16:35Z
2022-05-15T04:17:58Z,42.805,6.029,13.3006,4.60042,2470.31,2022-5-15T06:19:38Z
2022-05-15T04:21:01Z,42.805,6.029,13.3005,4.60040,2470.273,2022-5-15T06:22:42Z
2022-05-15T04:24:04Z,42.805,6.029,13.3005,4.60041,2470.297,2022-5-15T06:25:45Z
2022-05-15T04:27:07Z,42.805,6.029,13.3006,4.60042,2470.31,2022-5-15T06:28:48Z
2022-05-15T04:30:10Z,42.805,6.029,13.3004,4.60043,2470.31,2022-5-15T06:31:51Z
2022-05-15T04:33:13Z,42.805,6.029,13.3011,4.60042,2470.343,2022-5-15T06:34:54Z
2022-05-15T04:36:16Z,42.805,6.029,13.3007,4.60041,2470.334,2022-5-15T06:37:57Z
2022-05-15T04:39:19Z,42.805,6.029,13.3005,4.60041,2470.287,2022-5-15T06:41:00Z
2022-05-15T04:42:22Z,42.805,6.029,13.3003,4.60040,2470.32,2022-5-15T06:44:03Z
2022-05-15T04:45:26Z,42.805,6.029,13.3009,4.60042,2470.32,2022-5-15T06:47:07Z
2022-05-15T04:48:29Z,42.805,6.029,13.3009,4.60042,2470.334,2022-5-15T06:50:10Z
2022-05-15T04:51:32Z,42.805,6.029,13.3006,4.60043,2470.357,2022-5-15T06:53:13Z
2022-05-15T04:54:35Z,42.805,6.029,13.3009,4.60042,2470.343,2022-5-15T06:56:16Z
2022-05-15T04:57:38Z,42.805,6.029,13.3004,4.60041,2470.32,2022-5-15T06:59:19Z
2022-05-15T05:00:41Z,42.805,6.029,13.3008,4.60042,2470.357,2022-5-15T07:02:22Z
2022-05-15T05:03:44Z,42.805,6.029,13.3004,4.60041,2470.357,2022-5-15T07:05:25Z
2022-05-15T05:06:47Z,42.805,6.029,13.3004,4.60042,2470.357,2022-5-15T07:08:28Z
2022-05-15T05:09:51Z,42.805,6.029,13.3004,4.60041,2470.404,2022-5-15T07:11:31Z
2022-05-15T05:12:54Z,42.805,6.029,13.3006,4.60040,2470.38,2022-5-15T07:14:35Z
2022-05-15T05:15:57Z,42.805,6.029,13.3009,4.60042,2470.357,2022-5-15T07:17:38Z
2022-05-15T05:19:00Z,42.805,6.029,13.3005,4.60041,2470.366,2022-5-15T07:20:41Z
2022-05-15T05:22:03Z,42.805,6.029,13.3007,4.60041,2470.343,2022-5-15T07:23:44Z
2022-05-15T05:25:06Z,42.805,6.029,13.3006,4.60042,2470.366,2022-5-15T07:26:47Z
2022-05-15T05:28:09Z,42.805,6.029,13.3006,4.60040,2470.366,2022-5-15T07:29:50Z
2022-05-15T05:31:12Z,42.805,6.029,13.3006,4.60042,2470.366,2022-5-15T07:32:53Z
2022-05-15T05:34:16Z,42.805,6.029,13.3006,4.60042,2470.343,2022-5-15T07:35:56Z
2022-05-15T05:37:19Z,42.805,6.029,13.3006,4.60042,2470.366,2022-5-15T07:39:00Z
2022-05-15T05:40:22Z,42.805,6.029,13.3006,4.60042,2470.366,2022-5-15T07:42:03Z
2022-05-15T05:43:25Z,42.805,6.029,13.3006,4.60041,2470.404,2022-5-15T07:45:06Z
2022-05-15T05:46:28Z,42.805,6.029,13.3009,4.60043,2470.343,2022-5-15T07:48:09Z
2022-05-15T05:49:31Z,42.805,6.029,13.3008,4.60042,2470.38,2022-5-15T07:51:12Z
2022-05-15T05:52:34Z,42.805,6.029,13.3006,4.60043,2470.404,2022-5-15T07:54:15Z
2022-05-15T05:55:37Z,42.805,6.029,13.3007,4.60042,2470.357,2022-5-15T07:57:18Z
2022-05-15T05:58:41Z,42.805,6.029,13.3008,4.60041,2470.39,2022-5-15T08:00:21Z
2022-05-15T06:01:44Z,42.805,6.029,13.3004,4.60041,2470.404,2022-5-15T08:03:25Z
2022-05-15T06:04:47Z,42.805,6.029,13.3008,4.60042,2470.404,2022-5-15T08:06:28Z
2022-05-15T06:07:50Z,42.805,6.029,13.3006,4.60042,2470.39,2022-5-15T08:09:31Z
2022-05-15T06:10:53Z,42.805,6.029,13.3004,4.60041,2470.39,2022-5-15T08:12:34Z
2022-05-15T06:13:56Z,42.805,6.029,13.3006,4.60041,2470.404,2022-5-15T08:15:37Z
2022-05-15T06:16:59Z,42.805,6.029,13.3006,4.60042,2470.366,2022-5-15T08:18:40Z
2022-05-15T06:20:02Z,42.805,6.029,13.3009,4.60042,2470.366,2022-5-15T08:21:43Z
2022-05-15T06:23:06Z,42.805,6.029,13.3006,4.60041,2470.39,2022-5-15T08:24:46Z
2022-05-15T06:26:09Z,42.805,6.029,13.3011,4.60042,2470.39,2022-5-15T08:27:50Z
2022-05-15T06:29:12Z,42.805,6.029,13.3004,4.60041,2470.404,2022-5-15T08:30:53Z
2022-05-15T06:32:15Z,42.805,6.029,13.3006,4.60042,2470.404,2022-5-15T08:33:56Z
2022-05-15T06:35:18Z,42.805,6.029,13.3006,4.60042,2470.39,2022-5-15T08:36:59Z
2022-05-15T06:38:21Z,42.805,6.029,13.3006,4.60043,2470.366,2022-5-15T08:40:02Z
2022-05-15T06:41:24Z,42.805,6.029,13.3006,4.60042,2470.404,2022-5-15T08:43:05Z
2022-05-15T06:44:27Z,42.805,6.029,13.3006,4.60042,2470.413,2022-5-15T08:46:08Z
2022-05-15T06:47:31Z,42.805,6.029,13.3007,4.60041,2470.427,2022-5-15T08:49:11Z
2022-05-15T06:50:34Z,42.805,6.029,13.3006,4.60041,2470.413,2022-5-15T08:52:15Z
2022-05-15T06:53:37Z,42.805,6.029,13.3008,4.60043,2470.404,2022-5-15T08:55:18Z
2022-05-15T06:56:40Z,42.805,6.029,13.3006,4.60041,2470.38,2022-5-15T08:58:21Z
2022-05-15T06:59:43Z,42.805,6.029,13.3008,4.60042,2470.413,2022-5-15T09:01:24Z
2022-05-15T07:02:46Z,42.805,6.029,13.3009,4.60043,2470.39,2022-5-15T09:04:27Z
2022-05-15T07:05:49Z,42.805,6.029,13.3004,4.60042,2470.39,2022-5-15T09:07:30Z
2022-05-15T07:08:52Z,42.805,6.029,13.3005,4.60041,2470.39,2022-5-15T09:10:33Z
2022-05-15T07:11:55Z,42.805,6.029,13.3006,4.60041,2470.366,2022-5-15T09:13:36Z
2022-05-15T07:14:59Z,42.805,6.029,13.3004,4.60041,2470.413,2022-5-15T09:16:39Z
2022-05-15T07:18:02Z,42.805,6.029,13.3005,4.60041,2470.366,2022-5-15T09:19:43Z
2022-05-15T07:21:05Z,42.805,6.029,13.3007,4.60042,2470.427,2022-5-15T09:22:46Z
2022-05-15T07:24:08Z,42.805,6.029,13.3008,4.60041,2470.353,2022-5-15T09:25:49Z
2022-05-15T07:27:11Z,42.805,6.029,13.3008,4.60040,2470.39,2022-5-15T09:28:52Z
2022-05-15T07:30:14Z,42.805,6.029,13.3007,4.60041,2470.39,2022-5-15T09:31:55Z
2022-05-15T07:33:17Z,42.805,6.029,13.3003,4.60041,2470.39,2022-5-15T09:34:58Z
2022-05-15T07:36:20Z,42.805,6.029,13.3006,4.60042,2470.404,2022-5-15T09:38:01Z
2022-05-15T07:39:24Z,42.805,6.029,13.3006,4.60041,2470.366,2022-5-15T09:41:04Z
2022-05-15T07:42:27Z,42.805,6.029,13.3009,4.60042,2470.366,2022-5-15T09:44:08Z
2022-05-15T07:45:30Z,42.805,6.029,13.3006,4.60041,2470.366,2022-5-15T09:47:11Z
2022-05-15T07:48:33Z,42.805,6.029,13.3007,4.60040,2470.343,2022-5-15T09:50:14Z
2022-05-15T07:51:36Z,42.805,6.029,13.3004,4.60041,2470.357,2022-5-15T09:53:17Z
2022-05-15T07:54:39Z,42.805,6.029,13.3007,4.60041,2470.366,2022-5-15T09:56:20Z
2022-05-15T07:57:42Z,42.805,6.029,13.3008,4.60042,2470.366,2022-5-15T09:59:23Z
2022-05-15T08:00:45Z,42.805,6.029,13.3006,4.60040,2470.38,2022-5-15T10:02:26Z
2022-05-15T08:03:49Z,42.805,6.029,13.3008,4.60041,2470.38,2022-5-15T10:05:29Z
2022-05-15T08:06:52Z,42.805,6.029,13.3007,4.60040,2470.366,2022-5-15T10:08:33Z
2022-05-15T08:09:55Z,42.805,6.029,13.3008,4.60040,2470.38,2022-5-15T10:11:36Z
2022-05-15T08:12:58Z,42.805,6.029,13.3006,4.60041,2470.38,2022-5-15T10:14:39Z
2022-05-15T08:16:01Z,42.805,6.029,13.3004,4.60042,2470.343,2022-5-15T10:17:42Z
2022-05-15T08:19:04Z,42.805,6.029,13.3008,4.60040,2470.334,2022-5-15T10:20:45Z
2022-05-15T08:22:07Z,42.805,6.029,13.3006,4.60039,2470.357,2022-5-15T10:23:48Z
2022-05-15T08:25:10Z,42.805,6.029,13.3007,4.60039,2470.357,2022-5-15T10:26:51Z
2022-05-15T08:28:14Z,42.805,6.029,13.3000,4.60040,2470.38,2022-5-15T10:29:54Z
2022-05-15T08:31:17Z,42.805,6.029,13.3005,4.60039,2470.32,2022-5-15T10:32:58Z
2022-05-15T08:34:20Z,42.805,6.029,13.3005,4.60040,2470.38,2022-5-15T10:36:01Z
2022-05-15T08:37:23Z,42.805,6.029,13.3004,4.60040,2470.343,2022-5-15T10:39:04Z
2022-05-15T08:40:26Z,42.805,6.029,13.3004,4.60040,2470.343,2022-5-15T10:42:07Z
2022-05-15T08:43:29Z,42.805,6.029,13.3001,4.60040,2470.343,2022-5-15T10:45:10Z
2022-05-15T08:46:32Z,42.805,6.029,13.3006,4.60040,2470.357,2022-5-15T10:48:13Z
2022-05-15T08:49:35Z,42.805,6.029,13.3003,4.60039,2470.366,2022-5-15T10:51:16Z
2022-05-15T08:52:39Z,42.805,6.029,13.3007,4.60039,2470.343,2022-5-15T10:54:19Z
2022-05-15T08:55:42Z,42.805,6.029,13.3007,4.60040,2470.334,2022-5-15T10:57:23Z
2022-05-15T08:58:45Z,42.805,6.029,13.3002,4.60039,2470.357,2022-5-15T11:00:26Z
2022-05-15T09:01:48Z,42.805,6.029,13.3004,4.60039,2470.32,2022-5-15T11:03:29Z
2022-05-15T09:04:51Z,42.805,6.029,13.3008,4.60039,2470.357,2022-5-15T11:06:32Z
2022-05-15T09:07:54Z,42.805,6.029,13.3005,4.60039,2470.357,2022-5-15T11:09:35Z
2022-05-15T09:10:57Z,42.805,6.029,13.3004,4.60039,2470.343,2022-5-15T11:12:38Z
2022-05-15T09:14:00Z,42.805,6.029,13.3006,4.60040,2470.297,2022-5-15T11:15:41Z
2022-05-15T09:17:04Z,42.805,6.029,13.3003,4.60039,2470.343,2022-5-15T11:18:44Z
2022-05-15T09:20:07Z,42.805,6.029,13.3006,4.60039,2470.297,2022-5-15T11:21:48Z
2022-05-15T09:23:10Z,42.805,6.029,13.3005,4.60039,2470.32,2022-5-15T11:24:51Z
2022-05-15T09:26:13Z,42.805,6.029,13.3006,4.60039,2470.32,2022-5-15T11:27:54Z
2022-05-15T09:29:16Z,42.805,6.029,13.3005,4.60040,2470.297,2022-5-15T11:30:57Z
2022-05-15T09:32:19Z,42.805,6.029,13.3004,4.60039,2470.32,2022-5-15T11:34:00Z
2022-05-15T09:35:22Z,42.805,6.029,13.3004,4.60039,2470.32,2022-5-15T11:37:03Z
2022-05-15T09:38:25Z,42.805,6.029,13.3004,4.60039,2470.334,2022-5-15T11:40:06Z
2022-05-15T09:41:29Z,42.805,6.029,13.3006,4.60039,2470.334,2022-5-15T11:43:09Z
2022-05-15T09:44:32Z,42.805,6.029,13.3002,4.60039,2470.31,2022-5-15T11:46:13Z
2022-05-15T09:47:35Z,42.805,6.029,13.3004,4.60038,2470.334,2022-5-15T11:49:16Z
2022-05-15T09:50:38Z,42.805,6.029,13.3000,4.60039,2470.297,2022-5-15T11:52:19Z
2022-05-15T09:53:41Z,42.805,6.029,13.3004,4.60040,2470.32,2022-5-15T11:55:22Z
2022-05-15T09:56:44Z,42.805,6.029,13.3004,4.60039,2470.297,2022-5-15T11:58:25Z
2022-05-15T09:59:47Z,42.805,6.029,13.3002,4.60039,2470.297,2022-5-15T12:01:28Z
2022-05-15T10:02:50Z,42.805,6.029,13.3006,4.60039,2470.334,2022-5-15T12:04:31Z
2022-05-15T10:05:54Z,42.805,6.029,13.3005,4.60039,2470.297,2022-5-15T12:07:34Z
2022-05-15T10:08:57Z,42.805,6.029,13.3004,4.60039,2470.283,2022-5-15T12:10:38Z
2022-05-15T10:12:00Z,42.805,6.029,13.3010,4.60039,2470.31,2022-5-15T12:13:41Z
2022-05-15T10:15:03Z,42.805,6.029,13.3004,4.60039,2470.273,2022-5-15T12:16:44Z
2022-05-15T10:18:06Z,42.805,6.029,13.3004,4.60039,2470.287,2022-5-15T12:19:47Z
2022-05-15T10:21:09Z,42.805,6.029,13.3000,4.60039,2470.31,2022-5-15T12:22:50Z
2022-05-15T10:24:12Z,42.805,6.029,13.3007,4.60039,2470.273,2022-5-15T12:25:53Z
2022-05-15T10:27:15Z,42.805,6.029,13.3006,4.60040,2470.25,2022-5-15T12:28:56Z
2022-05-15T10:30:19Z,42.805,6.029,13.3004,4.60039,2470.273,2022-5-15T12:31:59Z
2022-05-15T10:33:22Z,42.805,6.029,13.3006,4.60039,2470.287,2022-5-15T12:35:03Z
2022-05-15T10:36:25Z,42.805,6.029,13.3001,4.60039,2470.297,2022-5-15T12:38:06Z
2022-05-15T10:39:28Z,42.805,6.029,13.3007,4.60039,2470.25,2022-5-15T12:41:09Z
2022-05-15T10:42:31Z,42.805,6.029,13.3004,4.60039,2470.297,2022-5-15T12:44:12Z
2022-05-15T10:45:34Z,42.805,6.029,13.3004,4.60039,2470.297,2022-5-15T12:47:15Z
2022-05-15T10:48:37Z,42.805,6.029,13.3007,4.60038,2470.264,2022-5-15T12:50:18Z
2022-05-15T10:51:40Z,42.805,6.029,13.3003,4.60040,2470.287,2022-5-15T12:53:21Z
2022-05-15T10:54:44Z,42.805,6.029,13.3004,4.60039,2470.264,2022-5-15T12:56:24Z
2022-05-15T10:57:47Z,42.805,6.029,13.2998,4.60039,2470.25,2022-5-15T12:59:28Z
2022-05-15T11:00:50Z,42.805,6.029,13.3003,4.60039,2470.25,2022-5-15T13:02:31Z
2022-05-15T11:03:53Z,42.805,6.029,13.3002,4.60039,2470.264,2022-5-15T13:05:34Z
2022-05-15T11:06:56Z,42.805,6.029,13.3005,4.60039,2470.25,2022-5-15T13:08:37Z
2022-05-15T11:09:59Z,42.805,6.029,13.3003,4.60038,2470.24,2022-5-15T13:11:40Z
2022-05-15T11:13:02Z,42.805,6.029,13.3004,4.60039,2470.287,2022-5-15T13:14:43Z
2022-05-15T11:16:05Z,42.805,6.029,13.3006,4.60038,2470.25,2022-5-15T13:17:46Z
2022-05-15T11:19:09Z,42.805,6.029,13.3003,4.60039,2470.264,2022-5-15T13:20:49Z
2022-05-15T11:22:12Z,42.805,6.029,13.3004,4.60038,2470.273,2022-5-15T13:23:53Z
2022-05-15T11:25:15Z,42.805,6.029,13.3001,4.60039,2470.25,2022-5-15T13:26:56Z
2022-05-15T11:28:18Z,42.805,6.029,13.3006,4.60039,2470.25,2022-5-15T13:29:59Z
2022-05-15T11:31:21Z,42.805,6.029,13.3004,4.60038,2470.264,2022-5-15T13:33:02Z
2022-05-15T11:34:24Z,42.805,6.029,13.3006,4.60039,2470.25,2022-5-15T13:36:05Z
2022-05-15T11:37:27Z,42.805,6.029,13.3006,4.60038,2470.264,2022-5-15T13:39:08Z
2022-05-15T11:40:30Z,42.805,6.029,13.3000,4.60039,2470.25,2022-5-15T13:42:11Z
2022-05-15T11:43:34Z,42.805,6.029,13.3004,4.60039,2470.264,2022-5-15T13:45:14Z
2022-05-15T11:46:37Z,42.805,6.029,13.3007,4.60038,2470.227,2022-5-15T13:48:18Z
2022-05-15T11:49:40Z,42.805,6.029,13.3003,4.60038,2470.264,2022-5-15T13:51:21Z
2022-05-15T11:52:43Z,42.805,6.029,13.3004,4.60039,2470.227,2022-5-15T13:54:24Z
2022-05-15T11:55:46Z,42.805,6.029,13.3005,4.60038,2470.227,2022-5-15T13:57:27Z
2022-05-15T11:58:49Z,42.805,6.029,13.3005,4.60039,2470.227,2022-5-15T14:00:30Z
2022-05-15T12:01:52Z,42.805,6.029,13.3006,4.60039,2470.217,2022-5-15T14:03:33Z
2022-05-15T12:04:55Z,42.805,6.029,13.3006,4.60038,2470.24,2022-5-15T14:06:36Z
2022-05-15T12:07:59Z,42.805,6.029,13.3008,4.60039,2470.203,2022-5-15T14:09:40Z
2022-05-15T12:11:02Z,42.805,6.029,13.3009,4.60039,2470.217,2022-5-15T14:12:43Z
2022-05-15T12:14:05Z,42.805,6.029,13.3006,4.60038,2470.24,2022-5-15T14:15:46Z
2022-05-15T12:17:08Z,42.805,6.029,13.3005,4.60038,2470.217,2022-5-15T14:18:49Z
2022-05-15T12:20:11Z,42.805,6.029,13.3002,4.60039,2470.24,2022-5-15T14:21:52Z
2022-05-15T12:23:14Z,42.805,6.029,13.3006,4.60039,2470.203,2022-5-15T14:24:55Z
2022-05-15T12:26:17Z,42.805,6.029,13.3003,4.60039,2470.25,2022-5-15T14:27:58Z
2022-05-15T12:29:20Z,42.805,6.029,13.3002,4.60039,2470.217,2022-5-15T14:31:01Z
2022-05-15T12:32:24Z,42.805,6.029,13.3005,4.60039,2470.203,2022-5-15T14:34:05Z
2022-05-15T12:35:27Z,42.805,6.029,13.3000,4.60039,2470.25,2022-5-15T14:37:08Z
2022-05-15T12:38:30Z,42.805,6.029,13.3004,4.60039,2470.227,2022-5-15T14:40:11Z
2022-05-15T12:41:33Z,42.805,6.029,13.3003,4.60039,2470.227,2022-5-15T14:43:14Z
2022-05-15T12:44:36Z,42.805,6.029,13.3004,4.60039,2470.25,2022-5-15T14:46:17Z
2022-05-15T12:47:39Z,42.805,6.029,13.3002,4.60039,2470.24,2022-5-15T14:49:20Z
2022-05-15T12:50:42Z,42.805,6.029,13.3005,4.60038,2470.203,2022-5-15T14:52:23Z
2022-05-15T12:53:46Z,42.805,6.029,13.3004,4.60039,2470.25,2022-5-15T14:55:26Z
2022-05-15T12:56:49Z,42.805,6.029,13.3003,4.60039,2470.227,2022-5-15T14:58:30Z
2022-05-15T12:59:52Z,42.805,6.029,13.3008,4.60039,2470.203,2022-5-15T15:01:33Z
2022-05-15T13:02:55Z,42.805,6.029,13.3006,4.60039,2470.227,2022-5-15T15:04:36Z
2022-05-15T13:05:58Z,42.805,6.029,13.3004,4.60039,2470.227,2022-5-15T15:07:39Z
2022-05-15T13:09:01Z,42.805,6.029,13.3002,4.60038,2470.227,2022-5-15T15:10:42Z
2022-05-15T13:12:04Z,42.805,6.029,13.3006,4.60038,2470.25,2022-5-15T15:13:45Z
2022-05-15T13:15:07Z,42.805,6.029,13.3003,4.60039,2470.203,2022-5-15T15:16:48Z
2022-05-15T13:18:10Z,42.805,6.029,13.3007,4.60039,2470.227,2022-5-15T15:19:51Z
2022-05-15T13:21:14Z,42.805,6.029,13.3006,4.60039,2470.227,2022-5-15T15:22:55Z
2022-05-15T13:24:17Z,42.805,6.029,13.3000,4.60039,2470.227,2022-5-15T15:25:58Z
2022-05-15T13:27:20Z,42.805,6.029,13.3000,4.60039,2470.227,2022-5-15T15:29:01Z
2022-05-15T13:30:23Z,42.805,6.029,13.3005,4.60039,2470.227,2022-5-15T15:32:04Z
2022-05-15T13:33:26Z,42.805,6.029,13.3005,4.60039,2470.227,2022-5-15T15:35:07Z
2022-05-15T13:36:29Z,42.805,6.029,13.3004,4.60038,2470.213,2022-5-15T15:38:10Z
2022-05-15T13:39:32Z,42.805,6.029,13.3005,4.60039,2470.227,2022-5-15T15:41:13Z
2022-05-15T13:42:35Z,42.805,6.029,13.3004,4.60039,2470.25,2022-5-15T15:44:16Z
2022-05-15T13:45:39Z,42.805,6.029,13.3004,4.60039,2470.203,2022-5-15T15:47:20Z
2022-05-15T13:48:42Z,42.805,6.029,13.3004,4.60038,2470.24,2022-5-15T15:50:23Z
2022-05-15T13:51:45Z,42.805,6.029,13.3004,4.60039,2470.264,2022-5-15T15:53:26Z
2022-05-15T13:54:48Z,42.805,6.029,13.3006,4.60039,2470.227,2022-5-15T15:56:29Z
2022-05-15T13:57:51Z,42.805,6.029,13.3002,4.60039,2470.25,2022-5-15T15:59:32Z
2022-05-15T14:00:54Z,42.805,6.029,13.3004,4.60039,2470.25,2022-5-15T16:02:35Z
2022-05-15T14:03:57Z,42.805,6.029,13.3004,4.60039,2470.24,2022-5-15T16:05:38Z
2022-05-15T14:07:00Z,42.805,6.029,13.3000,4.60039,2470.25,2022-5-15T16:08:41Z
2022-05-15T14:10:04Z,42.805,6.029,13.3002,4.60039,2470.24,2022-5-15T16:11:45Z
2022-05-15T14:13:07Z,42.805,6.029,13.3005,4.60039,2470.25,2022-5-15T16:14:48Z
2022-05-15T14:16:10Z,42.805,6.029,13.3005,4.60039,2470.227,2022-5-15T16:17:51Z
2022-05-15T14:19:13Z,42.805,6.029,13.3003,4.60038,2470.25,2022-5-15T16:20:54Z
2022-05-15T14:22:16Z,42.805,6.029,13.3006,4.60039,2470.264,2022-5-15T16:23:57Z
2022-05-15T14:25:19Z,42.805,6.029,13.3006,4.60039,2470.264,2022-5-15T16:27:00Z
2022-05-15T14:28:22Z,42.805,6.029,13.3004,4.60039,2470.25,2022-5-15T16:30:03Z
2022-05-15T14:31:25Z,42.805,6.029,13.3004,4.60039,2470.273,2022-5-15T16:33:06Z
2022-05-15T14:34:29Z,42.805,6.029,13.3000,4.60039,2470.273,2022-5-15T16:36:10Z
2022-05-15T14:37:32Z,42.805,6.029,13.3002,4.60039,2470.287,2022-5-15T16:39:13Z
2022-05-15T14:40:35Z,42.805,6.029,13.3006,4.60038,2470.273,2022-5-15T16:42:16Z
2022-05-15T14:43:38Z,42.805,6.029,13.3005,4.60040,2470.287,2022-5-15T16:45:19Z
2022-05-15T14:46:41Z,42.805,6.029,13.3008,4.60039,2470.297,2022-5-15T16:48:22Z
2022-05-15T14:49:44Z,42.805,6.029,13.3004,4.60039,2470.273,2022-5-15T16:51:25Z
2022-05-15T14:52:47Z,42.805,6.029,13.3004,4.60039,2470.297,2022-5-15T16:54:28Z
2022-05-15T14:55:51Z,42.805,6.029,13.3004,4.60039,2470.273,2022-5-15T16:57:31Z
2022-05-15T14:58:54Z,42.805,6.029,13.3001,4.60039,2470.273,2022-5-15T17:00:35Z
2022-05-15T15:01:57Z,42.805,6.029,13.3009,4.60038,2470.32,2022-5-15T17:03:38Z
2022-05-15T15:05:00Z,42.805,6.029,13.3004,4.60039,2470.31,2022-5-15T17:06:41Z
2022-05-15T15:08:03Z,42.805,6.029,13.3006,4.60039,2470.287,2022-5-15T17:09:44Z
2022-05-15T15:11:06Z,42.805,6.029,13.3003,4.60039,2470.31,2022-5-15T17:12:47Z
2022-05-15T15:14:09Z,42.805,6.029,13.3004,4.60041,2470.31,2022-5-15T17:15:50Z